Content
SEND FEEDBACK

Daily
Averages
Monthly
Summary
Philippines

QUEZON CITY, PHILIPPINES


Home > Asia > Philippines
Elevation: 151 feet     Latitude: 14 39N     Longitude: 121 03E

WEATHER
 
SELECT A DAY
Number of Records: 176,357;   Date Range: 7/1/96 - 9/30/14
 
SHARE

PRINT THIS DATA

[ ← Previous Day ]
WEATHER ALMANAC - APRIL 4, 2013
[ Next Day → ]
[ °C ]   °F
Weather ElementAverageHighLow
Temperature86.6 °F93.2 °F (12:00 pm)78.8 °F (5:00 am)
Dewpoint71.8 °F75.2 °F (9:00 pm)68 °F (9:00 am)
Humidity60.4 %79 % (3:00 am)37 % (2:00 pm)
Barometer29.76 in29.83 in (8:00 am)29.68 in (3:00 pm)
Wind Speed7.3 mph13.4 mph (2:00 pm)
Weather ElementAverage
Visibility6.1 mi
Wind DirectionESE (116.7 °)

Weather ElementTotal
Precipitation---
Cooling Degree Days21 (Base 65)
Growing Degree Days36 (Base 50)
Averaged from 31 records on April 4, 2013
WEATHER CONDITIONS BREAKOUT
WIND DIRECTION BREAKOUT
WEATHER BY HOUR - APRIL 4, 2013
[ °C ]   °F
Local TimeTemperatureDewpointHumidityBarometerVisibilityWind DirectionWind SpeedGust SpeedPrecipitationEventsConditions
1:00 AM82.4 °F73.4 °F74 %29.77 in6.2 miSE (130°)8.1 mphPartly Cloudy
2:00 AM82.0 °F73.0 °F68 %29.78 in6.0 miESE (120°)6.7 mphScattered Clouds
2:00 AM82.4 °F73.4 °F74 %29.77 in6.2 miESE (120°)6.9 mphPartly Cloudy
3:00 AM80.6 °F73.4 °F79 %29.77 in6.2 miESE (110°)5.8 mphPartly Cloudy
4:00 AM80.6 °F73.4 °F79 %29.77 in6.2 miESE (110°)3.5 mphPartly Cloudy
5:00 AM80.0 °F72.0 °F71 %29.79 in6.0 miCalmScattered Clouds
5:00 AM78.8 °F71.6 °F78 %29.77 in6.2 miCalmPartly Cloudy
6:00 AM78.8 °F71.6 °F78 %29.77 in6.2 miESE (120°)3.5 mphPartly Cloudy
7:00 AM84.2 °F71.6 °F66 %29.77 in6.2 miSE (140°)3.5 mphPartly Cloudy
8:00 AM85.0 °F70.0 °F52 %29.83 in6.0 miESE (120°)4.5 mphPartly Cloudy
8:00 AM86.0 °F69.8 °F58 %29.80 in6.2 miESE (120°)4.6 mphPartly Cloudy
9:00 AM86.0 °F68.0 °F55 %29.83 in6.2 miESE (110°)8.1 mphPartly Cloudy
10:00 AM89.6 °F69.8 °F52 %29.80 in6.2 miESE (110°)8.1 mphPartly Cloudy
11:00 AM89.0 °F71.0 °F46 %29.83 in6.0 miESE (110°)11.2 mphPartly Cloudy
11:00 AM89.6 °F71.6 °F55 %29.80 in6.2 miESE (110°)11.5 mphPartly Cloudy
12:00 PM93.2 °F71.6 °F49 %29.77 in6.2 miSE (130°)10.4 mphPartly Cloudy
1:00 PM93.2 °F69.8 °F46 %29.74 in6.2 miESE (120°)11.5 mphPartly Cloudy
2:00 PM92.0 °F69.0 °F37 %29.72 in6.0 miESE (110°)13.4 mphPartly Cloudy
2:00 PM93.2 °F68.0 °F44 %29.71 in6.2 miESE (110°)12.7 mphPartly Cloudy
3:00 PM93.2 °F69.8 °F46 %29.68 in6.2 miESE (120°)10.4 mphPartly Cloudy
4:00 PM93.2 °F69.8 °F46 %29.68 in6.2 miESE (120°)9.2 mphPartly Cloudy
5:00 PM91.0 °F71.0 °F42 %29.68 in6.0 miESE (120°)11.2 mphPartly Cloudy
5:00 PM91.4 °F71.6 °F52 %29.68 in6.2 miESE (120°)10.4 mphPartly Cloudy
6:00 PM89.6 °F71.6 °F55 %29.68 in6.2 miESE (120°)8.1 mphPartly Cloudy
7:00 PM87.8 °F73.4 °F62 %29.71 in6.2 miESE (110°)6.9 mphPartly Cloudy
8:00 PM86.0 °F72.0 °F56 %29.75 in6.0 miSE (130°)6.7 mphPartly Cloudy
8:00 PM86.0 °F73.4 °F66 %29.74 in6.2 miSE (130°)6.9 mphPartly Cloudy
9:00 PM86.0 °F75.2 °F70 %29.77 in6.2 miESE (120°)5.8 mphPartly Cloudy
10:00 PM84.2 °F75.2 °F74 %29.77 in6.2 miSE (130°)5.8 mphPartly Cloudy
11:00 PM84.0 °F75.0 °F68 %29.79 in6.0 miSE (140°)4.5 mphScattered Clouds
11:00 PM84.2 °F75.2 °F74 %29.77 in6.2 miSE (140°)5.8 mphPartly Cloudy
Hourly data recorded from RPLL, located miles away from Quezon City, Philippines







STORIES FROM OUR PARTNERS